TimeCST,TemperatureF,Dew PointF,Humidity,Sea Level PressureIn,VisibilityMPH,Wind Direction,Wind SpeedMPH,Gust SpeedMPH,PrecipitationIn,Events,Conditions,WindDirDegrees,DateUTC
12:53 AM,46.9,44.1,90,30.03,10.0,West,3.5,-,N/A,,Clear,260,2012-01-27 06:53:00
1:53 AM,45.0,43.0,93,30.03,10.0,West,4.6,-,N/A,,Clear,280,2012-01-27 07:53:00
2:53 AM,44.1,42.1,93,30.04,7.0,Calm,Calm,-,N/A,,Clear,0,2012-01-27 08:53:00
3:53 AM,43.0,42.1,97,30.05,7.0,Calm,Calm,-,0.01,,Clear,0,2012-01-27 09:53:00
4:53 AM,43.0,41.0,93,30.06,8.0,Calm,Calm,-,N/A,,Clear,0,2012-01-27 10:53:00
5:07 AM,41.0,39.2,93,30.05,1.8,Calm,Calm,-,N/A,,Clear,0,2012-01-27 11:07:00
5:16 AM,41.0,39.2,93,30.06,3.0,West,3.5,-,N/A,,Clear,260,2012-01-27 11:16:00
5:43 AM,39.2,37.4,93,30.07,1.8,Calm,Calm,-,N/A,,Clear,0,2012-01-27 11:43:00
5:53 AM,39.0,39.0,100,30.09,1.5,Calm,Calm,-,N/A,,Clear,0,2012-01-27 11:53:00
5:59 AM,41.0,39.2,93,30.08,3.0,Calm,Calm,-,N/A,,Clear,0,2012-01-27 11:59:00
6:22 AM,39.2,39.2,100,30.08,1.8,Calm,Calm,-,N/A,,Clear,0,2012-01-27 12:22:00
6:30 AM,37.4,37.4,100,30.08,3.0,Calm,Calm,-,N/A,,Clear,0,2012-01-27 12:30:00
6:53 AM,37.4,37.4,100,30.09,6.0,Calm,Calm,-,N/A,,Clear,0,2012-01-27 12:53:00
7:12 AM,39.2,37.4,93,30.09,2.5,Calm,Calm,-,N/A,,Partly Cloudy,0,2012-01-27 13:12:00
7:53 AM,39.9,39.0,97,30.12,5.0,Calm,Calm,-,N/A,,Clear,0,2012-01-27 13:53:00
8:53 AM,45.0,43.0,93,30.14,8.0,Calm,Calm,-,N/A,,Clear,0,2012-01-27 14:53:00
9:53 AM,51.1,44.1,77,30.14,10.0,Calm,Calm,-,N/A,,Clear,0,2012-01-27 15:53:00
10:53 AM,57.0,43.0,59,30.14,10.0,Calm,Calm,-,N/A,,Clear,0,2012-01-27 16:53:00
11:53 AM,60.1,34.0,38,30.11,10.0,Calm,Calm,-,N/A,,Clear,0,2012-01-27 17:53:00
12:53 PM,62.1,33.1,34,30.08,10.0,SE,9.2,-,N/A,,Clear,140,2012-01-27 18:53:00
1:53 PM,63.0,35.1,35,30.05,10.0,SE,5.8,-,N/A,,Clear,140,2012-01-27 19:53:00
2:53 PM,64.0,37.0,37,30.02,10.0,SE,9.2,-,N/A,,Clear,140,2012-01-27 20:53:00
3:53 PM,64.0,37.9,38,30.01,10.0,SSE,8.1,-,N/A,,Clear,160,2012-01-27 21:53:00
4:53 PM,63.0,37.9,40,30.01,10.0,South,6.9,-,N/A,,Clear,170,2012-01-27 22:53:00
5:53 PM,57.2,35.6,44,30.00,10.0,SSE,5.8,-,N/A,,Clear,160,2012-01-27 23:53:00
6:53 PM,54.0,37.9,55,30.03,10.0,SSE,4.6,-,N/A,,Clear,160,2012-01-28 00:53:00
7:53 PM,50.0,42.1,74,30.06,10.0,South,3.5,-,N/A,,Clear,190,2012-01-28 01:53:00
8:53 PM,48.9,39.0,69,30.08,10.0,South,3.5,-,N/A,,Clear,180,2012-01-28 02:53:00
9:53 PM,50.0,41.0,71,30.10,10.0,South,8.1,-,N/A,,Clear,190,2012-01-28 03:53:00
10:53 PM,46.9,41.0,80,30.13,10.0,Calm,Calm,-,N/A,,Clear,0,2012-01-28 04:53:00
11:53 PM,44.1,39.0,82,30.12,10.0,Calm,Calm,-,N/A,,Clear,0,2012-01-28 05:53:00